Flag for Canada Weather past 2 weeks in Colchester County, Nova Scotia, Canada

32 °F


Feels Like: 23 °F
Forecast: 16 / 30 °F
Wind: 12 mph from Northwest

Location: Halifax International Airport

Current Time: Nov 25, 2015 at 4:21:57 PM

Latest Report: Nov 25, 2015 at 3:00 PM

Visibility: 15 mi

Pressure: 30.78 "Hg

Humidity: 51%

Dew point: 16 °F

Location of Colchester CountyLocation

Historic Weather in Colchester County — Graph


Colchester County temperature yesterday

Maximum temperature yesterday: 34 °F (at 12:00 AM)
Minimum temperature yesterday: 25 °F (at 8:00 PM)
Average temperature yesterday: 29 °F

Past Weeks' High & Low Weather Summary

High59 °F (Nov 23, 1:00 AM)100% (Nov 11, 4:00 AM)30.78 "Hg (Nov 11, 4:00 AM)
Low21 °F (Nov 25, 7:00 AM)51% (Nov 25, 3:00 PM)29.26 "Hg (Nov 13, 2:00 PM)
Average41 °F86%30.03 "Hg
* Reported Nov 10 3:00 PM — Nov 25 3:00 PM, Colchester County, Weather by CustomWeather, © 2015

Note: Actual official high and low records may vary slightly from our data, if they occured in-between our weather recording intervals... More about our weather records


Colchester County weather history for previous 24 hours

Time TempWeatherWind HumidityBarometerVisibility
3:00 PM
Wed, Nov 25
32 °FSunny.12 mph51%30.78 "Hg15 mi
2:00 PM32 °FSunny.13 mph55%30.76 "Hg15 mi
1:00 PM30 °FPassing clouds.15 mph59%30.74 "Hg15 mi
12:00 PM30 °FPassing clouds.12 mph59%30.73 "Hg15 mi
11:00 AM28 °FPassing clouds.14 mph64%30.72 "Hg15 mi
10:00 AM27 °FPassing clouds.9 mph69%30.70 "Hg15 mi
9:00 AM23 °FPassing clouds.7 mph80%30.67 "Hg15 mi
8:00 AM23 °FPassing clouds.9 mph80%30.63 "Hg15 mi
7:00 AM21 °FPassing clouds.9 mph86%30.59 "Hg15 mi
6:00 AM23 °FClear.8 mph80%30.55 "Hg15 mi
5:00 AM23 °FClear.7 mph80%30.52 "Hg15 mi
4:00 AM23 °FClear.8 mph80%30.47 "Hg15 mi
3:00 AM23 °FClear.9 mph74%30.45 "Hg15 mi
2:00 AM25 °FPassing clouds.8 mph69%30.42 "Hg15 mi
1:01 AM25 °FPassing clouds.10 mph74%30.39 "Hg15 mi
12:00 AM27 °FOvercast.16 mph69%30.36 "Hg15 mi
11:00 PM
Tue, Nov 24
27 °FSnow flurries. Overcast.12 mph69%30.34 "Hg15 mi
10:00 PM27 °FSnow flurries. Overcast.12 mph74%30.31 "Hg15 mi
9:00 PM27 °FSnow flurries. Overcast.12 mph74%30.28 "Hg15 mi
8:00 PM25 °FSnow flurries. Overcast.10 mph80%30.26 "Hg12 mi
7:00 PM27 °FSnow flurries. Overcast.15 mph80%30.23 "Hg10 mi
6:00 PM27 °FSnow flurries. Overcast.13 mph86%30.19 "Hg10 mi
5:00 PM27 °FSnow flurries. Overcast.13 mph80%30.15 "Hg12 mi
4:00 PM27 °FSnow flurries. Partly sunny.17 mph80%30.11 "Hg8 mi
Weather by CustomWeather, © 2015

See weather overviewHow to use our weather pages